Вернуться в каталог

STARLINK-31058

АктивенСвязьVLEO
NORAD 58677·PAYLOAD·🇺🇸 United States

Запущен Dec 29, 2023 с Cape Canaveral Space Force Station

Loading…

Ближайшие Пролёты (ближайшие 24 часа)

TLE

СвежийSource: CelesTrak SupGP

Эпоха: Sep 14, 2026, 20:57 UTC

1 58677C 23211L   26257.87340278 -.00029017  00000+0 -10513-2 0  2572
2 58677  43.0009  96.6549 0001397 272.9541 326.8729 15.27583926    16

Отслеживайте STARLINK-31058 в реальном времени с AllMySat

Download on the App Store